N313WB KSDL-KVNY

Flight info

Callsign N313WB
Flight time N/A
Altitude 47000
Route MAYSA7 RRSTA EED JANNY5
Aircraft C750/M-SBDE3FGHRWXY/S

Departure

Time 2026-04-19 22:28
Airport Scottsdale Airport (KSDL)

Arrival

Time N/A
Airport Van Nuys Airport (KVNY)
Time Latitude Longitude Altitude Speed Heading
2026-04-19 21:45 33.62186 -111.91401 1462 ft 0 kts 315°
2026-04-19 22:21 33.62201 -111.91403 1462 ft 2 kts 18°
2026-04-19 22:21 33.62205 -111.91399 1464 ft 0 kts 37°
2026-04-19 22:22 33.62219 -111.91370 1467 ft 7 kts 78°
2026-04-19 22:22 33.62228 -111.91297 1470 ft 10 kts 71°
2026-04-19 22:22 33.62263 -111.91245 1470 ft 6 kts 58°
2026-04-19 22:23 33.62272 -111.91196 1473 ft 6 kts 70°
2026-04-19 22:23 33.62301 -111.91156 1472 ft 5 kts 41°
2026-04-19 22:23 33.62319 -111.91137 1472 ft 5 kts 45°
2026-04-19 22:23 33.62377 -111.91068 1477 ft 14 kts 44°
2026-04-19 22:24 33.62432 -111.91003 1477 ft 9 kts 44°
2026-04-19 22:24 33.62476 -111.90953 1481 ft 10 kts 44°
2026-04-19 22:24 33.62540 -111.90879 1488 ft 15 kts 44°
2026-04-19 22:24 33.62635 -111.90769 1489 ft 23 kts 44°
2026-04-19 22:25 33.62775 -111.90605 1489 ft 30 kts 44°
2026-04-19 22:25 33.62919 -111.90445 1498 ft 27 kts 44°
2026-04-19 22:25 33.63044 -111.90299 1505 ft 22 kts 44°
2026-04-19 22:25 33.63133 -111.90198 1509 ft 11 kts 46°
2026-04-19 22:26 33.63124 -111.90139 1511 ft 10 kts 141°
2026-04-19 22:26 33.63052 -111.90173 1509 ft 7 kts 225°
2026-04-19 22:26 33.63022 -111.90208 1507 ft 0 kts 225°
2026-04-19 22:28 33.63021 -111.90210 1507 ft 3 kts 225°
2026-04-19 22:28 33.62796 -111.90467 1498 ft 103 kts 223°
2026-04-19 22:28 33.62124 -111.91239 1748 ft 145 kts 222°
2026-04-19 22:28 33.61358 -111.92070 2508 ft 152 kts 218°
2026-04-19 22:29 33.60621 -111.92997 3122 ft 161 kts 233°
2026-04-19 22:29 33.60244 -111.94360 3644 ft 186 kts 261°
2026-04-19 22:29 33.60431 -111.95936 4276 ft 203 kts 291°
2026-04-19 22:29 33.61391 -111.97276 4789 ft 227 kts 328°
2026-04-19 22:30 33.62878 -111.97878 5815 ft 219 kts 355°
2026-04-19 22:30 33.64362 -111.98140 6863 ft 222 kts 346°
2026-04-19 22:30 33.65809 -111.99152 7133 ft 263 kts 317°
2026-04-19 22:30 33.67014 -112.00951 7597 ft 291 kts 304°
2026-04-19 22:31 33.68328 -112.02847 8621 ft 295 kts 314°
2026-04-19 22:31 33.69938 -112.04406 9679 ft 302 kts 323°
2026-04-19 22:31 33.71710 -112.05831 10393 ft 316 kts 326°
2026-04-19 22:31 33.73633 -112.07340 10690 ft 343 kts 326°
2026-04-19 22:32 33.75635 -112.09084 10820 ft 369 kts 322°
2026-04-19 22:32 33.77694 -112.11012 11487 ft 374 kts 321°
2026-04-19 22:32 33.79766 -112.12888 12466 ft 373 kts 323°
2026-04-19 22:32 33.81881 -112.14729 13199 ft 379 kts 323°
2026-04-19 22:33 33.81979 -112.14813 13230 ft 380 kts 323°
2026-04-19 22:34 33.82554 -112.15316 13407 ft 381 kts 323°
2026-04-19 22:34 33.84693 -112.17223 14147 ft 383 kts 322°
2026-04-19 22:34 33.86828 -112.19157 14805 ft 387 kts 322°
2026-04-19 22:34 33.89001 -112.21107 15475 ft 391 kts 322°